Flag for Mexico Weather past 2 weeks in Guadalajara, Jalisco, Mexico

Now
79 °F

Partly sunny.


Feels Like: 80 °F
Forecast: 64 / 81 °F
Wind: 8 mph from Southeast

Location: Don Miguel / Guadalaj

Current Time: Sep 1, 2014 at 2:23:00 PM

Latest Report: Sep 1, 2014 at 1:49 PM


Visibility: 10 mi

Pressure: 30.13 "Hg

Humidity: 51%

Dew point: 59 °F

Location of GuadalajaraLocation

Historic Weather in Guadalajara — Graph

°F

Guadalajara temperature yesterday

Maximum temperature yesterday: 81 °F (at 3:46 PM)
Minimum temperature yesterday: 63 °F (at 6:55 AM)
Average temperature yesterday: 70 °F

Past Weeks' High & Low Weather Summary

 TemperatureHumidityPressure
High84 °F (Aug 17, 5:48 PM)100% (Aug 19, 1:42 AM)30.25 "Hg (Aug 19, 1:42 AM)
Low59 °F (Aug 18, 4:48 AM)28% (Aug 21, 5:19 PM)29.62 "Hg (Aug 30, 3:46 PM)
Average70 °F70%30.04 "Hg
* Reported Aug 17 12:52 PM — Sep 1 12:58 PM, Guadalajara, Weather by CustomWeather, © 2014

Note: Actual official high and low records may vary slightly from our data, if they occured in-between our weather recording intervals... More about our weather records

Advertising

Guadalajara weather history for previous 24 hours

 ConditionsComfort  
Time TempWeatherWind HumidityBarometerVisibility
12:58 PM
Sep 1
75 °FScattered clouds.No wind57%29.80 "Hg8 mi
11:51 AM73 °FPartly sunny.8 mph65%30.14 "Hg8 mi
9:49 AM68 °FBroken clouds.3 mph83%29.83 "Hg3 mi
8:46 AM63 °FFog.No wind94%30.12 "Hg3 mi
7:46 AM61 °FFog.No wind100%30.12 "Hg2 mi
6:46 AM63 °FMostly cloudy.No wind94%29.79 "Hg5 mi
5:51 AM63 °FOvercast.5 mph94%30.12 "Hg5 mi
4:50 AM61 °FLight rain. Mostly cloudy.No wind94%30.11 "Hg7 mi
3:49 AM61 °FLight rain. Mostly cloudy.No wind94%29.80 "Hg7 mi
2:50 AM59 °FLight rain. Mostly cloudy.3 mph94%30.15 "Hg7 mi
1:45 AM66 °FPassing clouds.No wind88%30.13 "Hg8 mi
12:47 AM66 °FPassing clouds.No wind83%29.79 "Hg8 mi
11:48 PM
Aug 31
66 °FPassing clouds.No wind88%30.12 "Hg8 mi
10:48 PM66 °FOvercast.5 mph88%30.11 "Hg8 mi
9:47 PM68 °FOvercast.No wind64%29.78 "Hg8 mi
8:46 PM68 °FLight rain. Broken clouds.5 mph83%30.06 "Hg8 mi
7:50 PM73 °FBroken clouds.9 mph65%30.05 "Hg10 mi
5:45 PM79 °FBroken clouds.8 mph48%30.05 "Hg8 mi
4:52 PM81 °FBroken clouds.9 mph45%30.05 "Hg8 mi
3:46 PM81 °FScattered clouds.16 mph45%29.74 "Hg8 mi
2:52 PM79 °FPartly sunny.13 mph48%30.10 "Hg8 mi
Weather by CustomWeather, © 2014

See weather overviewHow to use our weather pages